Wind_Speed
42 45 45 40 39 41 44 45 46 37 42 49 53 53 50 50 43 42 37 37 32 29 28 23 18 11 8 6 5 3 2 1 4 11 14 18 19 25 34 42 54 72 86 95 96 96 94 85 80 79 76 73 68 64
41 44 45 40 37 38 40 44 46 34 38 48 51 48 46 44 44 41 37 32 30 25 20 20 19 16 9 5 1 4 4 3 2 4 7 9 12 17 20 26 43 57 72 83 96 101 95 92 86 81 79 75 70 67
40 42 43 38 36 38 38 41 43 30 35 45 50 45 45 42 42 38 37 33 27 24 22 19 18 17 12 10 7 6 4 3 3 2 4 7 7 8 9 15 26 37 48 69 82 95 96 98 93 90 84 78 74 70
39 41 43 37 36 38 39 40 36 25 33 41 48 47 43 38 41 36 31 33 31 29 27 24 20 20 16 13 10 9 6 7 7 5 5 4 5 6 7 7 8 21 33 47 64 74 85 92 94 94 88 83 77 72
37 41 41 37 37 37 37 37 27 23 28 38 45 43 42 41 37 33 27 28 31 30 27 26 19 17 15 15 16 15 12 11 10 6 2 1 4 5 3 3 3 11 19 35 44 54 70 73 89 94 89 85 81 76
37 40 38 39 37 36 36 34 24 20 26 35 39 40 39 40 33 31 30 34 36 30 27 26 25 19 15 14 13 15 17 16 15 13 10 8 11 11 6 1 7 18 19 21 29 42 52 58 68 75 79 80 76 77
37 38 38 39 36 34 33 29 19 18 24 32 36 37 34 34 28 28 29 30 34 33 29 26 22 18 19 20 20 20 17 16 14 13 13 15 17 22 11 5 11 11 14 18 23 34 41 46 45 48 47 48 52 54
37 36 39 37 36 34 32 25 17 11 21 28 33 34 33 29 24 22 24 23 27 31 28 28 24 21 19 18 18 17 17 19 18 17 17 19 20 19 16 18 9 10 10 11 19 32 45 45 43 35 30 41 50 50
36 36 37 36 36 33 29 19 12 10 20 26 30 34 30 23 17 16 17 22 26 29 27 25 25 25 24 22 20 20 20 22 23 22 24 20 20 17 16 13 8 3 6 0 11 32 48 51 44 42 45 47 51 50
32 35 36 36 34 31 26 13 6 11 18 29 34 29 14 18 15 15 17 26 30 31 28 26 27 28 27 25 29 36 38 30 33 31 25 14 15 23 22 21 21 7 5 7 26 40 51 40 37 24 49 38 47 51
28 33 37 36 32 27 22 12 6 12 21 30 34 28 13 15 19 27 34 34 35 32 34 32 30 28 30 33 31 33 37 42 39 37 39 30 25 24 30 30 28 28 16 16 23 38 27 28 45 30 54 42 40 54
25 32 38 37 30 21 19 12 12 17 21 30 27 16 18 20 26 27 29 29 30 30 26 30 30 33 34 43 48 46 47 49 52 40 32 31 25 24 16 21 22 28 20 29 31 24 33 28 21 22 15 39 22 40
24 29 33 34 29 19 16 12 17 14 27 27 18 13 21 22 23 28 25 26 26 28 24 28 28 28 31 37 39 41 44 45 46 46 46 46 26 22 18 28 13 20 16 23 26 16 23 9 13 12 21 26 21 29
22 26 28 31 25 19 16 17 20 24 25 21 13 22 29 24 23 19 23 24 23 19 22 26 26 24 26 30 36 40 39 40 38 38 36 32 33 17 15 19 19 26 27 34 19 28 16 10 5 20 23 23 19 15
20 20 23 25 26 18 11 12 19 25 26 22 18 22 26 30 20 18 18 19 22 22 24 23 23 22 18 20 26 29 34 35 36 28 23 29 28 27 22 18 20 23 23 32 30 31 18 19 21 14 7 15 13 15
18 19 19 20 21 22 24 25 29 23 16 16 23 25 25 24 22 18 16 16 19 23 24 26 22 19 18 20 20 23 24 26 24 20 19 20 24 25 24 22 22 18 12 13 15 12 11 16 17 16 12 10 13 18
15 17 17 18 19 19 27 29 23 18 18 20 24 22 22 21 22 21 20 19 20 19 16 19 18 20 24 21 17 18 19 16 14 15 18 19 18 18 18 18 18 18 17 15 14 11 9 7 6 8 5 3 3 4
14 16 17 15 13 13 20 23 23 22 19 18 18 19 21 23 24 22 22 22 21 20 19 18 20 20 21 19 18 15 13 14 14 13 12 13 16 17 16 16 13 10 8 8 8 9 8 7 7 7 6 5 2 4
16 16 15 14 11 10 15 18 22 22 20 21 20 22 21 22 22 22 22 21 20 19 18 20 22 22 20 18 17 18 19 17 17 19 19 19 16 13 13 13 11 10 10 8 8 8 8 9 10 8 8 9 10 11
16 16 15 13 11 10 13 16 15 18 21 21 21 22 22 22 23 23 25 25 24 24 22 20 18 19 19 19 18 18 17 18 19 19 20 20 20 21 20 19 18 17 15 15 14 14 13 13 14 16 17 15 15 16
14 12 12 14 14 12 15 15 16 19 19 21 22 22 22 23 24 24 25 26 26 24 21 20 20 20 20 20 19 19 20 21 22 23 24 25 26 25 25 25 24 24 23 21 21 22 22 22 22 21 22 23 24 25
8 10 11 13 12 13 14 14 16 18 18 19 20 21 21 21 22 23 25 25 26 26 25 23 22 22 21 21 21 20 21 21 22 23 26 28 29 29 30 30 31 31 32 32 31 31 31 32 32 32 33 33 34 34
12 11 11 12 11 13 13 14 15 16 17 19 20 21 22 23 23 24 24 26 27 28 27 26 26 25 25 23 22 22 23 23 23 23 22 22 24 26 28 29 29 30 31 32 34 35 36 38 39 40 40 39 39 39
9 11 10 11 12 13 15 16 17 18 20 21 22 22 21 22 23 24 25 27 30 32 33 31 29 28 28 27 27 26 26 26 26 26 26 25 25 25 25 25 25 26 26 26 26 25 25 26 29 33 36 37 37 36
9 11 12 13 15 16 17 18 20 21 21 21 21 20 19 20 21 23 25 28 31 33 34 34 32 31 30 29 28 27 25 24 25 25 25 25 25 26 26 26 26 27 27 27 26 26 25 26 25 25 26 27 27 28
12 13 14 15 16 18 19 20 21 22 23 23 22 19 19 20 22 25 27 29 31 34 34 35 34 33 32 30 26 23 22 24 25 27 26 27 27 27 27 27 27 27 27 28 27 27 27 26 25 24 24 24 25 26
12 13 14 15 17 19 20 21 22 22 22 24 22 20 22 24 25 28 31 31 32 33 33 33 33 32 31 29 26 25 25 27 29 29 29 29 29 30 30 30 30 30 29 29 30 29 28 27 27 27 27 27 27 27
11 11 13 15 18 19 20 21 23 24 25 27 26 23 26 27 28 31 32 33 34 35 33 32 33 32 32 31 30 30 31 34 36 37 35 33 32 32 32 31 32 33 33 33 32 30 30 29 29 28 27 27 28 28
14 15 17 18 19 19 21 23 25 26 27 28 29 30 30 30 30 32 33 33 37 39 37 35 35 35 35 35 35 35 38 40 43 43 41 38 36 32 30 28 26 26 26 27 28 28 28 28 27 27 27 26 26 26
15 15 16 18 19 19 21 22 23 25 28 29 28 28 30 30 31 32 31 32 39 41 39 39 39 38 38 40 39 41 44 46 44 39 34 29 25 22 21 20 20 20 20 20 20 21 22 22 22 23 23 23 23 23
14 14 15 16 18 19 21 22 23 24 26 27 27 27 28 30 31 32 32 32 38 40 41 42 41 40 42 42 44 47 47 44 37 28 23 22 20 20 21 21 21 21 20 18 18 17 17 18 18 18 19 19 19 20
15 14 14 15 17 18 21 22 23 24 26 28 28 29 30 31 32 32 32 34 39 42 44 43 43 45 44 46 48 46 40 36 28 25 27 24 22 21 21 22 22 22 22 21 20 19 17 15 15 16 15 15 15 15
14 15 15 17 19 21 24 24 24 25 28 30 30 31 33 34 33 33 36 38 41 44 44 44 46 46 48 48 44 40 34 33 30 29 29 27 26 26 24 23 23 22 22 21 19 17 16 16 15 15 15 15 15 15
Wind_Direction
333 335 339 335 335 337 340 339 342 352 357 357 354 353 352 348 347 349 356 359 360 8 2 354 351 338 317 328 300 349 19 63 201 224 231 235 234 242 240 233 232 228 224 224 228 228 231 230 231 234 238 238 236 237
332 335 339 339 334 334 340 340 340 350 354 355 352 353 356 352 348 347 349 0 356 360 18 17 7 8 1 337 298 302 331 353 169 194 197 211 221 234 244 239 238 234 232 230 226 227 230 231 232 233 237 237 239 239
332 336 337 337 335 334 336 340 340 349 354 353 350 353 359 359 359 356 359 359 358 354 5 8 6 17 39 38 29 29 42 121 158 190 201 193 197 199 223 213 229 237 236 237 232 227 228 232 233 232 233 236 238 241
333 336 338 338 335 331 332 339 345 347 352 348 347 355 360 358 2 4 0 10 6 1 355 13 18 24 32 46 59 71 82 100 92 94 119 145 173 177 175 223 241 236 234 238 238 233 231 232 236 235 234 235 237 240
335 336 339 337 334 332 333 338 349 349 351 347 353 356 356 5 2 5 15 20 19 23 26 28 33 39 41 47 42 44 45 44 36 25 350 330 290 263 283 201 266 264 241 236 234 232 234 232 233 235 236 237 238 240
336 338 338 337 336 336 334 337 350 354 355 351 355 360 356 3 4 21 29 33 25 22 24 33 33 33 32 27 16 13 14 17 19 16 13 359 357 0 22 345 270 259 270 255 221 221 227 231 234 235 237 239 238 240
338 339 339 336 336 336 335 341 352 355 359 353 357 356 357 357 358 9 22 29 30 27 29 33 35 37 37 37 34 32 31 34 33 34 40 27 12 10 21 199 261 292 284 265 228 211 200 206 214 222 228 230 231 232
341 341 340 340 339 337 336 338 343 7 6 354 1 4 358 354 351 6 16 21 27 23 27 32 31 35 33 29 25 28 23 28 30 29 31 25 13 10 21 19 356 298 270 276 226 214 189 179 178 185 197 209 209 213
344 345 345 342 343 343 343 342 339 19 3 353 4 5 356 356 350 0 14 23 27 29 29 34 36 38 41 44 45 43 44 48 49 52 48 45 32 12 13 5 351 234 226 140 194 190 168 159 153 178 181 197 206 215
349 353 350 348 350 349 346 351 3 26 355 6 14 6 7 356 0 16 41 52 50 46 42 43 52 54 46 55 60 58 53 56 56 51 58 65 41 25 17 26 23 324 206 146 169 171 158 158 164 159 178 186 208 209
354 359 357 354 357 355 352 11 39 18 14 10 4 0 28 46 67 66 64 62 61 63 61 58 61 64 66 63 62 68 64 59 57 61 64 60 54 43 44 39 29 33 67 110 166 167 150 152 171 178 184 187 208 208
350 357 359 1 7 7 11 25 26 4 360 16 353 5 75 78 73 63 64 60 58 64 61 63 75 69 75 71 73 67 63 60 58 68 85 67 57 41 61 38 51 39 109 141 147 134 131 148 141 179 193 208 233 215
354 3 3 9 18 31 32 34 26 33 29 10 357 26 62 81 72 56 56 54 67 66 73 57 59 71 75 65 69 70 66 60 59 58 60 51 73 51 52 32 51 58 105 106 96 96 100 94 177 200 173 173 179 192
6 12 12 14 19 31 34 25 29 38 20 359 2 39 47 66 64 59 52 53 53 57 52 52 61 61 60 65 66 67 65 70 60 57 51 52 66 74 41 66 97 110 125 129 138 142 137 112 218 157 159 167 176 168
1 10 11 15 23 14 2 16 31 30 9 347 8 47 47 48 55 66 72 69 59 49 32 24 28 39 48 53 56 59 59 56 65 53 37 39 50 65 90 95 94 114 118 109 100 113 172 174 130 129 177 198 225 207
7 11 14 11 17 23 41 46 34 16 353 11 31 40 39 37 40 48 58 59 61 47 23 9 12 359 14 30 35 46 54 55 57 54 40 43 52 54 64 65 58 64 91 91 87 101 114 128 156 166 165 180 198 211
10 11 15 18 14 28 44 39 35 26 29 32 35 41 46 41 40 38 37 37 49 47 40 23 3 358 357 2 20 32 41 37 27 24 17 15 18 27 42 43 37 38 43 46 59 73 77 92 107 153 187 234 234 254
8 12 18 20 14 21 37 25 14 10 9 17 19 22 25 24 18 15 17 19 15 11 23 21 13 360 351 349 353 2 1 359 347 347 344 344 345 348 357 5 10 16 14 7 5 4 2 9 11 11 6 357 287 248
3 3 4 14 9 7 24 13 7 15 21 22 20 19 18 13 8 6 6 6 3 354 357 354 344 341 339 343 343 336 331 330 325 322 321 320 321 318 317 321 325 324 326 324 320 316 309 304 302 292 284 282 282 286
351 1 6 4 353 350 3 5 8 20 23 24 25 25 24 21 15 12 11 8 3 2 0 352 345 342 337 331 325 317 309 305 303 300 299 302 305 307 306 304 302 299 297 296 294 291 289 290 290 291 293 291 287 289
348 359 8 20 27 32 32 36 45 43 38 36 31 28 27 24 19 16 11 7 6 2 357 352 348 347 347 343 336 326 317 311 307 300 292 288 288 289 289 290 290 290 289 286 282 281 282 280 278 278 281 286 290 292
18 33 43 43 42 43 43 39 33 31 28 26 23 18 14 13 13 13 14 11 9 5 358 351 347 345 342 338 334 329 325 320 313 308 304 302 298 292 288 285 283 282 281 281 280 280 279 277 277 277 279 280 281 283
45 44 42 33 28 25 24 21 18 13 10 7 5 2 1 0 1 2 4 5 5 5 0 353 346 343 339 335 330 324 318 316 314 316 316 309 303 298 295 294 292 288 283 280 278 276 275 275 276 276 277 278 278 280
21 19 10 3 360 358 355 352 351 349 350 351 351 351 354 357 357 355 357 2 4 2 0 357 351 346 341 338 337 334 329 325 321 319 317 315 312 310 310 306 302 298 293 288 286 284 282 279 274 271 271 272 273 274
354 352 352 347 347 348 345 345 346 346 345 346 351 352 354 356 357 356 359 360 357 353 354 354 350 347 343 337 334 333 330 328 326 324 321 319 318 315 311 309 306 304 302 299 297 296 295 290 286 281 275 272 272 273
343 342 344 343 345 344 344 346 347 348 347 346 346 346 347 350 351 356 356 354 351 349 348 349 348 346 343 343 341 337 336 335 333 329 325 321 318 316 314 311 309 306 304 301 298 296 294 291 289 288 287 284 282 280
338 340 338 340 344 345 346 345 345 346 347 350 347 342 343 342 347 353 353 351 347 348 346 345 345 341 342 344 340 337 333 332 332 329 324 319 315 310 307 305 303 302 301 299 297 294 292 290 288 286 285 284 284 285
332 332 339 341 341 343 345 346 348 348 348 350 353 347 343 343 344 348 347 345 346 347 345 344 343 340 340 341 339 336 334 333 331 329 324 318 312 306 301 297 293 292 291 290 290 290 288 286 286 286 285 284 282 282
336 340 341 342 341 345 346 345 345 346 345 345 345 343 343 343 341 342 343 342 340 344 342 344 342 339 339 341 339 337 336 335 333 329 324 319 316 312 309 306 302 298 294 291 290 290 289 287 285 284 283 283 282 282
335 335 334 336 343 348 346 344 343 342 342 342 342 342 341 343 337 341 344 337 333 338 339 342 341 340 341 340 339 339 338 337 335 330 328 328 329 329 330 330 329 325 322 317 311 305 299 296 293 290 287 286 285 285
335 336 338 340 344 344 344 343 344 345 345 344 344 342 340 336 336 337 337 331 329 339 339 340 340 341 341 340 340 339 339 337 337 339 339 339 340 340 338 336 335 334 331 329 325 320 313 306 300 297 294 291 288 287
337 336 337 336 336 338 342 347 350 347 344 344 344 343 343 340 339 342 340 336 340 340 340 341 342 342 342 342 340 339 340 343 342 341 340 336 334 332 330 329 329 327 324 321 318 316 315 313 309 304 299 295 293 292
342 340 337 336 336 339 342 343 344 345 345 346 345 344 345 345 344 344 344 341 339 341 342 343 343 343 343 342 341 344 342 341 339 334 333 332 329 327 325 323 323 323 322 318 315 314 313 311 308 305 304 303 302 299
Height
5746 5739 5732 5722 5714 5706 5698 5690 5682 5674 5665 5654 5644 5632 5620 5609 5598 5590 5582 5574 5566 5558 5550 5543 5538 5535 5533 5533 5533 5534 5534 5535 5536 5538 5540 5542 5546 5550 5555 5563 5570 5578 5589 5599 5609 5618 5628 5653 5665 5676 5684 5693 5706 5715
5741 5734 5727 5718 5710 5702 5695 5687 5678 5671 5663 5654 5644 5632 5622 5610 5600 5591 5583 5575 5568 5561 5555 5549 5542 5537 5535 5533 5533 5533 5533 5534 5534 5535 5538 5539 5542 5543 5547 5554 5559 5567 5572 5583 5594 5607 5622 5634 5647 5660 5667 5680 5692 5702
5737 5730 5722 5714 5707 5698 5692 5685 5676 5669 5661 5653 5643 5632 5623 5614 5603 5593 5585 5576 5569 5562 5557 5551 5547 5543 5539 5537 5535 5534 5534 5533 5534 5534 5535 5537 5539 5541 5542 5546 5547 5553 5559 5566 5578 5597 5610 5618 5629 5642 5654 5668 5679 5688
5734 5725 5717 5709 5702 5694 5688 5682 5674 5667 5660 5653 5642 5634 5625 5616 5606 5596 5588 5580 5572 5565 5559 5555 5550 5547 5543 5541 5539 5537 5536 5536 5536 5536 5536 5537 5537 5539 5540 5540 5542 5544 5546 5556 5563 5582 5597 5608 5614 5627 5641 5657 5669 5678
5729 5721 5713 5705 5697 5690 5683 5678 5671 5665 5660 5652 5643 5635 5626 5617 5609 5600 5591 5583 5576 5571 5564 5559 5554 5551 5548 5545 5543 5541 5540 5540 5540 5539 5539 5538 5538 5538 5539 5539 5540 5539 5541 5544 5556 5563 5574 5594 5604 5615 5628 5643 5656 5669
5724 5717 5708 5700 5694 5687 5680 5673 5668 5663 5659 5652 5645 5636 5628 5619 5612 5606 5596 5588 5580 5574 5568 5564 5559 5554 5551 5549 5547 5545 5543 5542 5541 5540 5539 5539 5538 5536 5537 5537 5538 5536 5536 5537 5542 5548 5562 5577 5592 5606 5620 5633 5645 5655
5719 5712 5704 5696 5690 5684 5676 5670 5665 5661 5657 5651 5645 5637 5628 5621 5615 5608 5601 5593 5585 5580 5574 5569 5564 5560 5556 5553 5551 5550 5547 5546 5545 5543 5542 5539 5538 5535 5536 5535 5535 5532 5531 5532 5534 5538 5551 5563 5580 5594 5611 5624 5635 5647
5716 5708 5701 5693 5686 5679 5672 5667 5662 5659 5656 5651 5645 5636 5628 5622 5617 5613 5606 5598 5590 5584 5579 5573 5569 5565 5562 5559 5556 5553 5550 5549 5548 5547 5545 5542 5540 5538 5536 5535 5533 5531 5528 5527 5527 5532 5543 5556 5572 5590 5606 5618 5628 5637
5713 5706 5698 5690 5683 5675 5669 5663 5660 5657 5655 5652 5645 5636 5629 5625 5621 5616 5609 5602 5595 5591 5584 5579 5574 5571 5567 5564 5561 5557 5555 5553 5551 5550 5548 5546 5544 5540 5538 5534 5531 5529 5528 5528 5527 5533 5544 5558 5573 5591 5599 5609 5618 5629
5711 5704 5696 5688 5681 5673 5666 5662 5660 5657 5655 5650 5645 5640 5634 5629 5625 5620 5614 5606 5599 5595 5591 5586 5582 5578 5576 5572 5568 5564 5561 5558 5556 5554 5551 5548 5547 5544 5539 5534 5531 5528 5526 5531 5536 5543 5551 5563 5571 5587 5598 5603 5613 5622
5710 5704 5696 5687 5680 5672 5666 5663 5661 5659 5656 5652 5646 5641 5636 5633 5630 5623 5615 5611 5608 5605 5600 5596 5592 5587 5585 5580 5575 5570 5568 5565 5561 5560 5557 5555 5553 5551 5549 5544 5539 5534 5532 5539 5546 5551 5559 5568 5578 5582 5595 5598 5609 5617
5710 5704 5696 5688 5680 5674 5670 5667 5665 5663 5658 5655 5650 5646 5639 5635 5629 5627 5622 5619 5617 5614 5611 5606 5602 5599 5595 5588 5583 5582 5578 5574 5570 5569 5566 5564 5562 5561 5559 5555 5553 5549 5551 5555 5560 5564 5573 5578 5586 5589 5597 5605 5607 5606
5710 5705 5698 5690 5683 5678 5675 5672 5670 5666 5661 5660 5656 5650 5640 5636 5634 5633 5631 5628 5626 5624 5621 5616 5613 5609 5605 5600 5593 5588 5586 5584 5582 5577 5575 5573 5571 5573 5570 5567 5567 5566 5567 5569 5572 5575 5579 5583 5589 5597 5599 5602 5602 5601
5711 5706 5700 5694 5689 5684 5680 5677 5672 5666 5666 5667 5661 5652 5644 5641 5639 5639 5638 5635 5633 5631 5628 5624 5622 5619 5616 5611 5605 5598 5597 5592 5590 5589 5587 5585 5584 5581 5581 5579 5575 5573 5574 5574 5580 5584 5584 5590 5593 5595 5595 5596 5597 5597
5711 5707 5703 5698 5692 5687 5683 5679 5674 5671 5669 5668 5665 5656 5653 5649 5647 5645 5642 5641 5639 5637 5635 5633 5629 5627 5624 5619 5613 5609 5603 5600 5598 5601 5600 5597 5595 5593 5591 5589 5586 5585 5584 5582 5584 5585 5589 5596 5595 5593 5593 5596 5597 5601
5711 5707 5704 5700 5695 5691 5684 5679 5677 5676 5674 5670 5662 5659 5656 5655 5653 5651 5648 5644 5641 5638 5638 5636 5634 5633 5628 5623 5620 5615 5613 5610 5610 5609 5607 5606 5603 5600 5598 5598 5596 5595 5594 5593 5593 5594 5594 5594 5594 5593 5594 5595 5596 5597
5711 5708 5704 5701 5697 5694 5688 5684 5684 5682 5677 5672 5668 5666 5663 5662 5658 5655 5652 5648 5644 5642 5642 5640 5638 5633 5631 5627 5624 5620 5617 5617 5616 5615 5612 5610 5608 5607 5606 5603 5602 5600 5599 5598 5597 5597 5597 5597 5596 5596 5596 5595 5595 5596
5711 5709 5705 5702 5699 5696 5692 5689 5687 5682 5679 5677 5674 5669 5666 5662 5659 5657 5654 5651 5648 5645 5642 5640 5639 5636 5633 5629 5626 5623 5621 5620 5617 5615 5615 5614 5611 5607 5607 5606 5605 5605 5604 5603 5602 5600 5600 5600 5599 5598 5597 5596 5596 5596
5712 5709 5706 5703 5701 5698 5695 5692 5689 5684 5680 5677 5673 5670 5666 5663 5660 5657 5654 5651 5649 5646 5643 5639 5637 5634 5633 5631 5628 5625 5622 5620 5618 5614 5612 5610 5610 5610 5608 5606 5605 5604 5602 5601 5601 5600 5598 5596 5596 5598 5598 5597 5597 5596
5712 5710 5707 5704 5701 5699 5697 5694 5690 5687 5683 5680 5677 5673 5669 5666 5663 5658 5655 5652 5649 5645 5642 5639 5637 5634 5631 5628 5626 5624 5622 5619 5616 5614 5611 5607 5605 5603 5601 5601 5600 5599 5599 5597 5596 5594 5593 5592 5590 5587 5586 5587 5589 5589
5712 5710 5708 5705 5702 5699 5697 5695 5692 5689 5687 5684 5680 5677 5673 5669 5665 5661 5657 5652 5648 5646 5643 5639 5636 5632 5629 5626 5622 5619 5615 5612 5609 5606 5604 5602 5600 5598 5596 5595 5594 5593 5592 5592 5591 5589 5587 5586 5585 5584 5583 5581 5579 5577
5712 5710 5709 5706 5704 5702 5700 5697 5694 5691 5689 5686 5682 5679 5675 5672 5668 5664 5659 5655 5651 5646 5641 5637 5633 5629 5626 5622 5618 5615 5611 5607 5604 5600 5596 5593 5591 5590 5589 5588 5587 5585 5584 5583 5582 5581 5580 5579 5577 5577 5576 5575 5573 5571
5713 5712 5710 5709 5707 5704 5703 5699 5696 5693 5690 5687 5684 5680 5676 5672 5668 5664 5660 5656 5651 5646 5641 5636 5631 5626 5622 5618 5614 5610 5606 5602 5598 5594 5591 5587 5583 5580 5577 5575 5573 5572 5571 5570 5570 5569 5568 5567 5565 5564 5563 5562 5561 5560
5715 5713 5711 5710 5708 5705 5703 5700 5696 5693 5690 5687 5683 5680 5676 5671 5667 5663 5659 5654 5649 5644 5639 5633 5628 5623 5618 5614 5609 5604 5600 5596 5592 5588 5584 5580 5576 5572 5569 5566 5564 5562 5560 5559 5558 5557 5555 5554 5553 5552 5551 5550 5549 5548
5716 5714 5712 5709 5707 5705 5702 5699 5696 5692 5689 5685 5682 5679 5675 5671 5667 5662 5657 5652 5647 5642 5636 5630 5625 5620 5615 5610 5605 5600 5595 5591 5587 5582 5578 5574 5570 5566 5562 5558 5555 5552 5549 5547 5546 5544 5542 5542 5541 5541 5540 5540 5539 5538
5715 5713 5712 5709 5706 5704 5700 5697 5694 5690 5687 5684 5680 5677 5673 5669 5665 5660 5655 5650 5645 5639 5633 5628 5622 5616 5611 5605 5600 5595 5591 5587 5582 5577 5573 5568 5564 5559 5555 5551 5547 5544 5541 5538 5535 5534 5532 5531 5530 5529 5528 5527 5527 5526
5715 5713 5710 5708 5705 5702 5699 5695 5692 5689 5685 5682 5678 5674 5670 5665 5660 5656 5651 5647 5642 5637 5631 5625 5619 5613 5607 5602 5596 5591 5587 5582 5577 5572 5567 5562 5557 5552 5548 5544 5539 5536 5532 5529 5526 5525 5523 5521 5520 5518 5517 5516 5515 5514
5714 5711 5709 5707 5704 5701 5697 5694 5690 5687 5683 5679 5675 5671 5667 5661 5657 5652 5648 5644 5639 5633 5627 5622 5616 5609 5603 5597 5591 5586 5580 5574 5568 5562 5557 5552 5547 5542 5537 5533 5529 5525 5522 5519 5517 5515 5513 5511 5509 5507 5506 5505 5504 5503
5711 5709 5707 5705 5702 5699 5695 5692 5688 5684 5680 5676 5672 5667 5662 5658 5654 5649 5644 5638 5633 5628 5622 5617 5611 5604 5597 5591 5584 5578 5572 5565 5557 5549 5542 5536 5530 5526 5522 5519 5516 5513 5511 5508 5506 5504 5501 5500 5498 5497 5496 5495 5494 5493
5709 5707 5705 5703 5701 5698 5695 5691 5687 5683 5679 5675 5671 5666 5661 5656 5652 5647 5641 5635 5629 5623 5617 5611 5604 5597 5590 5583 5577 5570 5562 5554 5546 5538 5531 5526 5521 5518 5514 5511 5507 5505 5502 5499 5497 5494 5492 5490 5488 5487 5486 5485 5484 5483
5708 5706 5704 5702 5700 5697 5694 5690 5686 5682 5677 5673 5669 5664 5660 5654 5648 5643 5637 5632 5625 5619 5612 5605 5598 5590 5583 5576 5568 5561 5553 5545 5538 5532 5527 5522 5518 5514 5511 5507 5504 5500 5497 5494 5491 5489 5486 5484 5482 5480 5478 5477 5476 5475
5707 5705 5704 5701 5699 5696 5692 5688 5684 5680 5676 5671 5666 5661 5657 5651 5645 5640 5633 5627 5621 5614 5607 5599 5591 5584 5576 5568 5560 5553 5545 5539 5533 5528 5524 5519 5515 5511 5507 5503 5499 5495 5492 5489 5486 5483 5480 5478 5476 5475 5473 5471 5470 5469
5706 5705 5702 5699 5696 5693 5690 5686 5683 5679 5674 5669 5664 5658 5652 5647 5641 5635 5630 5623 5616 5609 5601 5593 5586 5578 5570 5562 5554 5546 5540 5534 5529 5523 5518 5513 5509 5504 5501 5497 5493 5489 5486 5482 5480 5477 5475 5473 5471 5469 5468 5467 5466 5465